www.pogodaiklimat.ru

Погода и климат >> Архив погоды >> Россия >> Краснодарский край >> Джубга


ПОГОДА в Джубге

  • Прогноз погоды в Джубге
  • Монитор погоды в Джубге

АРХИВ ПОГОДЫ в Джубге

Время (UTC), дата Ветер
(напр.,м/с)
 
Видим.   Явления Облачность Т
(С)
Тd
(С)
f
(%)
Тe
(С)
Тes
(С)
Комфортность P
(гПа)
Po
(гПа)
Тmin
(С)
Tmax
(С)
R
(мм)
R24
(мм)
S
(см)
06 9.01 штиль 0 10 км в посл. час снег {дождь} [диам. отлож. мокр. снега мм] 10/0 600 м
[As op]
+0.1 -2.5 83 -1 -1 1012.5 1009.9 +0.1
09 9.01 С 2 10 км 8/0
[Ac As]
+1.5 -3.1 71 -2 0 1015.5 1012.9
12 9.01 С 2 10 км 3/0
[Cs]
+2.5 -3.7 64 -0 +1 1017.3 1014.6
15 9.01 С 2 10 км 4/0
[Ac As]
+0.2 -2.4 83 -3 -3 1019.2 1016.5 +2.8 1
18 9.01 С 1 10 км слаб. дождь 10/0 600 м
[As op]
+0.8 -1.5 85 -1 -1 1020.4 1017.8
21 9.01 Ю 3 10 км слаб. ливневой дождь 10/10 600 м
[Cb cap]
+5.1 +1.0 75 +2 +2 1020.8 1018.2
00 10.01 Ю 2 10 км {ливн. осадки} 10/10 600 м
[Cb cap]
+6.6 -1.6 56 +5 +5 1021.8 1019.1
03 10.01 ЮВ 3
{11}
10 км 10/10 600 м
[Cb cap]
+6.1 +0.4 67 +3 +3 1020.9 1018.3 -0.5 5
06 10.01 ЮВ 4-12
{12}
10 км 10/10 600 м
[Cb cap]
+7.4 -0.0 59 +4 +4 1021.4 1018.8
09 10.01 ЮВ 4-11
{13}
10 км 8/4 600 м
[Cb cap Ac As]
+8.9 +1.6 60 +6 +7 1020.4 1017.8
12 10.01 ЮВ 3
{12}
10 км 9/6 600 м
[Cb cap Ac As]
+9.0 +2.2 62 +7 +7 1019.3 1016.7
15 10.01 Ю 4-10
{12}
10 км 8/8 600 м
[Cb cap]
+10.1 +1.6 56 +8 +8 1018.9 1016.3 +10.1
18 10.01 ЮВ 2
{16}
10 км в посл. час ливневой дождь 10/10 600 м
[Cb cap]
+10.1 +3.6 64 +9 +9 1018.8 1016.3
21 10.01 Ю 3 10 км 10/10 600 м
[Cb cap]
+10.6 +4.5 66 +9 +9 1018.5 1016.0
00 11.01 Ю 5-10
{11}
н/о н/о +10.9 +3.9 62 +8 +8 1018.5 1015.9
03 11.01 Ю 3
{10}
10 км 10/10 600 м
[Cb cap]
+10.7 +5.0 68 +9 +9 1017.6 1015.0 +7.5 0.4
06 11.01 ЮВ 4-11
{13}
10 км {ливн. осадки} 10/10 600 м
[Cb cap]
+10.6 +5.0 68 +8 +8 1018.5 1015.9
09 11.01 ЮВ 3
{13}
10 км 10/8 600 м
[Cb cap Ac As]
+11.2 +5.0 66 +10 +10 1017.4 1014.8
12 11.01 ЮВ 3
{13}
10 км 10/6 600 м
[Cb cap Ac As]
+11.1 +4.8 65 +9 +10 1015.8 1013.2
15 11.01 ЮВ 3-10
{13}
10 км 10/10 600 м
[Cb cap]
+11.2 +5.1 66 +10 +10 1014.8 1012.3 +11.4 0.4
18 11.01 Ю 2
{10}
10 км 10/10 600 м
[Cb cap]
+11.3 +6.4 72 +10 +10 1015.0 1012.4
21 11.01 Ю 4 10 км слаб. ливневой дождь 10/10 600 м
[Cb cap]
+10.7 +6.3 74 +8 +8 1013.5 1010.9
00 12.01 ЮЗ 1 10 км {ливн. осадки} 10/10 600 м
[Cb cap]
+9.8 +7.0 83 +9 +9 1013.5 1010.9
03 12.01 ЮЗ 3 10 км слаб. ливневой дождь 10/10 600 м
[Cb cap]
+8.9 +5.4 79 +6 +6 1013.2 1010.6 +8.9 0.5
06 12.01 ЮЗ 3
{10}
10 км слаб. ливневой дождь 10/10 600 м
[Cb cap]
+8.0 +3.4 73 +5 +5 1014.8 1012.2 +8.0
09 12.01 Ю 1 10 км {ливн. осадки} 10/10 600 м
[Cb cap]
+7.9 +2.3 68 +7 +7 1014.2 1011.6
12 12.01 Ю 1 10 км слаб. ливневой дождь 10/10 600 м
[Cb cap]
+7.7 +2.2 68 +7 +7 1013.2 1010.6
15 12.01 Ю 1 10 км слаб. ливневой дождь 10/10 600 м
[Cb cap]
+7.7 +2.2 68 +7 +7 1012.5 1009.9 +8.9 0.3
18 12.01 Ю 2 10 км слаб. ливневой дождь 10/10 600 м
[Cb cap]
+7.9 +2.3 68 +6 +6 1010.6 1008.0
21 12.01 З 2 10 км слаб. ливневой дождь 10/10 600 м
[Cb cap]
+6.4 +3.0 79 +4 +4 1009.3 1006.7
00 13.01 С 1 10 км слаб. ливневой дождь 10/10 600 м
[Cb cap]
+5.3 +3.1 86 +4 +4 1008.2 1005.6
03 13.01 С 2 10 км слаб. ливневой дождь 10/10 600 м
[Cb cap]
+4.5 +3.1 91 +2 +2 1007.8 1005.2 +4.5 17
06 13.01 С 2 10 км слаб. ливневой дождь 10/10 600 м
[Cb cap]
+2.7 +1.2 90 -1 -1 1008.6 1006.0 +2.7
09 13.01 С 2 10 км {ливн. осадки} 10/10 600 м
[Cb cap]
+3.9 +0.8 80 +1 +1 1009.0 1006.4
12 13.01 С 1 10 км {ливн. осадки} 10/8 600 м
[Cb cap Ac As]
+5.1 +0.8 74 +4 +4 1008.9 1006.3
15 13.01 С 1 10 км 10/6 600 м
[Cb cap Ac As]
+4.1 +1.1 81 +3 +3 1008.7 1006.1 +5.5 4
18 13.01 С 2 10 км 10/4 600 м
[Cb cap Ac As]
+3.3 +0.8 84 0 0 1008.8 1006.2
21 13.01 С 3 10 км 10/3 600 м
[Cb cap Ac As]
+2.7 +0.4 85 -1 -1 1008.4 1005.8
00 14.01 С 3 10 км 10/10
[Cb cap]
+2.5 +0.4 86 -2 -2 1007.3 1004.7
03 14.01 С 3 10 км 10/0
[Ac As]
+2.7 +0.4 85 -1 -1 1005.7 1003.1 +2.5
06 14.01 Ю 1 10 км 10/10 600 м
[Cb cap]
+7.5 +4.2 80 +7 +7 1005.3 1002.7
09 14.01 Ю 7-12
{12}
10 км слаб. ливневой дождь 10/10 600 м
[Cb cap]
+8.8 +5.7 81 +5 +5 1004.2 1001.7
12 14.01 Ю 6-11
{14}
10 км в посл. час ливневой дождь 10/10 600 м
[Cb cap]
+10.1 +5.6 74 +7 +7 1003.0 1000.5
15 14.01 Ю 3
{11}
10 км 10/10 600 м
[Cb cap]
+10.2 +4.3 67 +8 +8 1003.0 1000.5 +10.3 2
18 14.01 Ю 4-10
{10}
10 км 10/10 600 м
[Cb cap]
+10.2 +5.2 71 +8 +8 1003.5 1001.0
21 14.01 Ю 3
{12}
10 км в посл. час ливневой дождь 10/10 600 м
[Cb cap]
+10.4 +7.1 80 +8 +8 1004.1 1001.6
00 15.01 З 3 10 км слаб. ливневой дождь 10/10 600 м
[Cb cap]
+8.2 +4.5 77 +6 +6 1004.4 1001.9
03 15.01 штиль 0 10 км {ливн. осадки} 10/10 600 м
[Cb cap]
+8.1 +4.1 76 +7 +7 1004.2 1001.6 +7.7 3
06 15.01 Ю 3 10 км {ливн. осадки} 10/10 600 м
[Cb cap]
+10.4 +7.2 81 +8 +8 1004.6 1002.1
09 15.01 ЮВ 4-14
{15}
10 км слаб. ливневой дождь 10/10 600 м
[Cb cap]
+10.9 +6.1 72 +9 +9 1004.2 1001.6
12 15.01 Ю 2
{17}
10 км {ливн. осадки} 10/10 600 м
[Cb cap]
+11.1 +6.0 71 +10 +10 1002.3 999.8
15 15.01 ЮВ 3
{11}
10 км 10/10 600 м
[Cb cap]
+12.6 +5.0 60 +11 +11 999.5 997.0 +12.6 1
18 15.01 ЮВ 2
{14}
10 км слаб. ливневой дождь 10/10 600 м
[Cb cap]
+10.4 +7.0 79 +9 +9 999.7 997.2
21 15.01 ЮВ 2
{14}
10 км {ливн. осадки} 10/10 600 м
[Cb cap]
+9.4 +7.4 87 +8 +8 996.6 994.1
00 16.01 Ю 4-10
{17}
10 км слаб. ливневой дождь 10/10 600 м
[Cb cap]
+12.3 +7.0 70 +10 +10 995.4 992.9
03 16.01 Ю 7-12
{16}
10 км {ливн. осадки} 10/10 600 м
[Cb cap]
+11.1 +6.6 74 +8 +8 996.4 993.9 +9.2 9

 

Местоположение метеостанции Джубга (Краснодарский край, Россия): широта 44.33 долгота 38.72 высота над уровнем моря 23 м.

В архиве по умолчанию представлена погода в Джубге за последнюю неделю. Архивные данные за месяц целиком и за предыдущие месяцы, начиная с января 2011 года, Вы можете получить, выбрав интересующий диапазон дат из раскрывающегося списка и нажав кнопку "Ввод!".


*Определитесь, кто Вы:
робот инопланетянин человек

Внимание! Время в таблицах - всемирное. Для получения местного времени необходимо прибавить поправку, которая равна 3 ч.

Смотрите также архив погоды в соседних городах и на ближайших метеорологических станциях:

Погода в Туапсе (Краснодарский край, Россия) (38 км)
Погода в Горном (Краснодарский край, Россия) (44 км)
Погода в Горячем Ключе (Краснодарский край, Россия) (45 км)
Погода в Магри (Краснодарский край, Россия) (49 км)
Погода в Геленджике (Краснодарский край, Россия) (57 км)
Погода в Лазаревском (Краснодарский край, Россия) (68 км)
Погода в Новороссийске (Краснодарский край, Россия) (81 км)
Погода в Краснодаре (Краснодарский край, Россия) (84 км)
Погода в Кичмае (Краснодарский край, Россия) (84 км)
Погода в Крымске (Краснодарский край, Россия) (87 км)

Пояснения к столбцам:

Ветер - указаны скорость ветра в м/с - средняя за 10 мин, порывы в срок и между сроками (в фигурных скобках) и направление, откуда дует ветер: С - северный, СВ - северо-восточный, В - восточный, ЮВ - юго-восточный, Ю - южный, ЮЗ - юго-западный, З - западный, СЗ - северо-западный.
Видимость - горизонтальная дальность видимости в метрах или километрах. При видимости от 1 до 10 км при отсутствии осадков обычно наблюдается дымка, при ухудшении видимости до 1 км и менее - туман. В сухую погоду видимость может ухудшаться дымом, пылью или мглою.
Явления - указаны атмосферные явления, наблюдавшиеся в срок или в последний час перед сроком; фигурными скобками обозначены явления, наблюдавшиеся между сроками (за 1-3 часа до срока); квадратными скобками обозначены град или гололедные отложения с указанием их диаметра в мм.
Облачность - указаны через наклонную черту общая и нижняя облачность в баллах и высота нижней границы облаков в метрах; квадратными скобками обозначены формы облаков: Ci - перистые, Cs - перисто-слоистые, Cc - перисто-кучевые, Ac - высококучевые, As - высокослоистые, Sc - слоисто-кучевые, Ns - слоисто-дождевые, Cu - кучевые, Cb - кучево-дождевые. Подробнее классификацию облаков см. в Атласе облаков (PDF).
T - Температура воздуха - температура, измеренная на высоте 2 м над землей.
Td - Температура точки росы - температура, при понижении до которой содержащийся в воздухе водяной пар достигнет насыщения.
f - Относительная влажность воздуха - влажноcть воздуха, измеренная на высоте 2 м над землей.
Te - Эффективная температура - температура, которую ощущает одетый по сезону человек в тени. Характеристика душности погоды. При расчете учитывается влияние влажности воздуха и скорости ветра на теплоощущения человека.
Tes - Эффективная температура на солнце - температура, которую ощущает человек, с поправкой на солнечный нагрев. Характеристика знойности погоды. Зависит от высоты солнца над горизонтом, облачности и скорости ветра. Ночью, в пасмурную погоду, а также при ветре 12 м/с и более поправка равна нулю.
P - Атмосферное давление - приведенное к уровню моря атмосферное давление.
Po - Атмосферное давление - измеренное на уровне метеостанции атмосферное давление.
Tmin - Минимальная температура - минимум температуры воздуха на высоте 2 м над землей.
Tmax - Максимальная температура - максимум температуры воздуха на высоте 2 м над землей.
R - Количество осадков - Количество выпавших осадков за период времени, мм. При наведении курсора мыши на число - период времени, за который выпало указанное количество осадков.
R24 - Количество осадков - Количество выпавших осадков за 24 часа, мм.
S - Снежный покров - Высота снежного покрова, см. При наведении курсора мыши на число - состояние снежного покрова и степень покрытия местности в баллах.